Weather History for Baraboo, WI

Change the Weather History Date:

Friday, January 24, 2014

  Actual Average Record
Temperature  
Mean Temperature 10 °F -  
Max Temperature 30 °F 29 °F 53 °F (1967)
Min Temperature -9 °F 9 °F -23 °F (1952)
Degree Days  
Heating Degree Days 55    
Moisture  
Dew Point 5 °F    
Average Humidity 69    
Maximum Humidity 92    
Minimum Humidity 54    
Precipitation  
Precipitation 0.00 in - - ()
Sea Level Pressure  
Sea Level Pressure 29.76 in    
Wind  
Wind Speed 14 mph (SW)    
Max Wind Speed 23 mph    
Max Gust Speed 33 mph    
Visibility 9 miles    
Events Snow    
Averages and records for this station are not official NWS values.
T = Trace of Precipitation, MM = Missing Value Source: NWS Daily Summary

Daily Weather History Graph

Daily Weather History Graph

Search for Another Location

Airport:

Trip Planner

Search our weather history database for the weather conditions in past years. The results will help you decide how hot, cold, wet, or windy it might be!

Date:

Astronomy

Jan. 24, 2014 Rise Set
Actual Time 7:23 AM CST 4:59 PM CST
Civil Twilight 6:51 AM CST 5:30 PM CST
Nautical Twilight 6:17 AM CST 6:05 PM CST
Astronomical Twilight 5:43 AM CST 6:39 PM CST
Moon 12:47 AM CST (1/24) 11:20 AM CST (1/24)
Length of Visible Light 10h 38m
Length of Day
9h 36m
Last Quarter, 44% of the Moon is Illuminated
Jan 24
Last Quarter
Jan 30
New
Feb 6
First Quarter
Feb 14
Full
Feb 22
Last Quarter

Hourly Weather History & Observations

Time (CST) Temp. Windchill Dew Point Humidity Pressure Visibility Wind Dir Wind Speed Gust Speed Precip Events Conditions
12:15 AM -9.6 °F -25.8 °F -16.2 °F 73% 30.36 in 10.0 mi SW 8.1 mph - N/A   Clear
12:35 AM -9.4 °F -26.8 °F -15.7 °F 74% 30.34 in 10.0 mi SW 9.2 mph - N/A   Clear
12:55 AM -8.9 °F -25.0 °F -15.0 °F 75% 30.32 in 10.0 mi SW 8.1 mph - N/A   Clear
1:15 AM -7.6 °F -27.5 °F -13.7 °F 75% 30.31 in 10.0 mi SW 12.7 mph 18.4 mph N/A   Clear
1:35 AM -6.5 °F -27.0 °F -12.5 °F 75% 30.29 in 10.0 mi SW 13.8 mph 19.6 mph N/A   Clear
1:55 AM -5.8 °F -24.4 °F -11.4 °F 77% 30.28 in 10.0 mi SW 11.5 mph - N/A   Clear
2:15 AM -5.4 °F -25.6 °F -11.4 °F 76% 30.27 in 10.0 mi SW 13.8 mph - N/A   Clear
2:35 AM -5.3 °F -22.8 °F -11.2 °F 76% 30.25 in 10.0 mi SW 10.4 mph 17.3 mph N/A   Clear
2:55 AM -4.0 °F -25.2 °F -10.3 °F 74% 30.23 in 10.0 mi SW 16.1 mph 26.5 mph N/A   Clear
3:15 AM -2.9 °F -25.0 °F -9.4 °F 74% 30.21 in 10.0 mi SW 18.4 mph 25.3 mph N/A   Scattered Clouds
3:35 AM -0.9 °F -22.4 °F -8.7 °F 70% 30.19 in 10.0 mi SW 18.4 mph 24.2 mph N/A   Scattered Clouds
3:55 AM -0.0 °F -18.7 °F -8.5 °F 68% 30.16 in 10.0 mi SW 13.8 mph 24.2 mph N/A   Scattered Clouds
4:15 AM 1.2 °F -19.6 °F -8.5 °F 64% 30.13 in 10.0 mi SW 18.4 mph 21.9 mph N/A   Clear
4:35 AM 1.9 °F -18.1 °F -8.1 °F 63% 30.10 in 7.0 mi SSW 17.3 mph 23.0 mph N/A   Clear
4:55 AM 1.9 °F -16.9 °F -8.0 °F 63% 30.08 in 10.0 mi SSW 15.0 mph 21.9 mph N/A   Scattered Clouds
5:15 AM 2.3 °F -18.2 °F -7.6 °F 63% 30.05 in 7.0 mi SSW 18.4 mph 25.3 mph N/A   Mostly Cloudy
5:35 AM 2.8 °F -17.0 °F -7.4 °F 62% 30.03 in 10.0 mi SSW 17.3 mph 25.3 mph N/A   Overcast
5:55 AM 3.2 °F -16.5 °F -7.2 °F 62% 30.00 in 10.0 mi SSW 17.3 mph - N/A   Overcast
6:15 AM 5.0 °F -14.2 °F -6.7 °F 59% 29.97 in 10.0 mi SSW 17.3 mph - N/A   Overcast
6:35 AM 7.3 °F -13.1 °F -5.8 °F 55% 29.95 in 5.0 mi SW 21.9 mph 31.1 mph N/A   Haze
6:55 AM 8.2 °F -11.5 °F -5.1 °F 55% 29.93 in 7.0 mi SW 20.7 mph 29.9 mph N/A   Overcast
7:15 AM 8.6 °F -10.5 °F -4.9 °F 54% 29.92 in 10.0 mi SW 19.6 mph 24.2 mph N/A   Overcast
7:35 AM 8.6 °F -11.9 °F -4.0 °F 57% 29.90 in 4.0 mi SW 23.0 mph 33.4 mph N/A   Haze
7:55 AM 8.6 °F -10.0 °F -4.0 °F 57% 29.88 in 10.0 mi SW 18.4 mph 28.8 mph N/A   Overcast
8:15 AM 8.6 °F -9.5 °F -3.6 °F 58% 29.86 in 10.0 mi SW 17.3 mph 25.3 mph N/A   Overcast
8:35 AM 9.3 °F -7.4 °F -3.1 °F 57% 29.84 in 10.0 mi SW 15.0 mph 27.6 mph N/A   Overcast
8:55 AM 10.2 °F -5.7 °F -2.0 °F 58% 29.85 in 10.0 mi SW 13.8 mph 26.5 mph N/A   Overcast
9:15 AM 11.1 °F -5.7 °F -1.3 °F 57% 29.84 in 10.0 mi SW 16.1 mph 21.9 mph N/A   Overcast
9:35 AM 11.7 °F -6.0 °F -0.6 °F 58% 29.83 in 10.0 mi SW 18.4 mph 24.2 mph N/A   Overcast
9:55 AM 12.0 °F -5.6 °F -0.2 °F 58% 29.81 in 10.0 mi SW 18.4 mph 23.0 mph N/A   Overcast
10:15 AM 12.4 °F -3.5 °F 0.5 °F 59% 29.80 in 10.0 mi SW 15.0 mph 21.9 mph N/A   Overcast
10:35 AM 13.1 °F -0.7 °F 0.7 °F 58% 29.79 in 10.0 mi SW 11.5 mph 20.7 mph N/A   Overcast
10:55 AM 13.6 °F -3.0 °F 1.6 °F 59% 29.78 in 10.0 mi SW 17.3 mph 23.0 mph N/A   Overcast
11:15 AM 13.8 °F -2.7 °F 2.1 °F 60% 29.76 in 10.0 mi SW 17.3 mph 21.9 mph N/A   Overcast
11:35 AM 14.5 °F -0.7 °F 2.5 °F 59% 29.76 in 10.0 mi SW 15.0 mph 24.2 mph N/A   Overcast
11:55 AM 15.4 °F 0.4 °F 3.7 °F 60% 29.72 in 10.0 mi SW 15.0 mph 24.2 mph N/A   Overcast
12:15 PM 15.8 °F -1.5 °F 4.1 °F 60% 29.68 in 10.0 mi SW 20.7 mph 27.6 mph N/A   Overcast
12:35 PM 16.5 °F -0.6 °F 4.6 °F 60% 29.68 in 10.0 mi SW 20.7 mph 27.6 mph N/A   Overcast
12:55 PM 16.7 °F 0.5 °F 5.2 °F 61% 29.66 in 10.0 mi SW 18.4 mph 25.3 mph N/A   Overcast
1:15 PM 17.6 °F 2.2 °F 6.1 °F 61% 29.64 in 10.0 mi SW 17.3 mph 23.0 mph N/A   Overcast
1:35 PM 18.5 °F 3.8 °F 7.0 °F 61% 29.62 in 10.0 mi WSW 16.1 mph 24.2 mph N/A   Overcast
1:55 PM 19.4 °F 5.0 °F 7.7 °F 60% 29.61 in 10.0 mi WSW 16.1 mph 21.9 mph N/A   Overcast
2:15 PM 19.4 °F 4.1 °F 8.4 °F 62% 29.59 in 10.0 mi SW 18.4 mph 24.2 mph N/A   Overcast
2:35 PM 20.1 °F 5.4 °F 9.1 °F 62% 29.58 in 10.0 mi SW 17.3 mph 28.8 mph N/A   Overcast
2:55 PM 20.7 °F 4.5 °F 9.3 °F 62% 29.56 in 10.0 mi SW 21.9 mph 26.5 mph N/A   Overcast
3:15 PM 21.0 °F 6.2 °F 10.0 °F 63% 29.57 in 10.0 mi WSW 18.4 mph 21.9 mph N/A   Overcast
3:35 PM 21.2 °F 7.8 °F 10.6 °F 64% 29.55 in 10.0 mi SW 15.0 mph - N/A   Overcast
3:55 PM 21.7 °F 8.5 °F 10.9 °F 63% 29.55 in 10.0 mi SW 15.0 mph 20.7 mph N/A   Overcast
4:15 PM 22.1 °F 8.9 °F 12.0 °F 65% 29.55 in 10.0 mi SW 15.0 mph 23.0 mph N/A   Overcast
4:35 PM 22.5 °F 9.4 °F 12.4 °F 65% 29.54 in 10.0 mi SW 15.0 mph 18.4 mph N/A   Overcast
4:55 PM 22.6 °F 10.1 °F 12.9 °F 66% 29.53 in 10.0 mi SW 13.8 mph - N/A   Overcast
5:15 PM 23.0 °F 10.6 °F 13.3 °F 66% 29.52 in 10.0 mi SW 13.8 mph 19.6 mph N/A   Overcast
5:35 PM 23.5 °F 11.3 °F 13.8 °F 66% 29.50 in 10.0 mi SW 13.8 mph - N/A   Overcast
5:55 PM 23.7 °F 10.1 °F 14.2 °F 67% 29.50 in 10.0 mi SW 17.3 mph 26.5 mph N/A   Overcast
6:15 PM 24.1 °F 10.6 °F 14.7 °F 68% 29.48 in 10.0 mi SW 17.3 mph 23.0 mph N/A   Overcast
6:35 PM 24.6 °F 10.9 °F 15.3 °F 68% 29.46 in 10.0 mi SW 18.4 mph 21.9 mph N/A   Overcast
6:55 PM 25.2 °F 12.4 °F 16.7 °F 70% 29.46 in 4.0 mi WSW 16.1 mph 24.2 mph N/A Snow Light Snow
7:15 PM 25.3 °F 13.1 °F 18.5 °F 75% 29.45 in 2.5 mi WSW 15.0 mph 24.2 mph N/A Snow Light Snow
7:35 PM 25.2 °F 13.3 °F 19.8 °F 80% 29.44 in 2.5 mi WSW 13.8 mph 20.7 mph N/A Snow Light Snow
7:55 PM 25.3 °F 14.1 °F 20.7 °F 82% 29.43 in 4.0 mi WSW 12.7 mph 19.6 mph N/A Snow Light Snow
8:15 PM 25.9 °F 13.8 °F 21.4 °F 83% 29.42 in 5.0 mi WSW 15.0 mph 20.7 mph N/A Snow Light Snow
8:35 PM 26.6 °F 15.7 °F 22.1 °F 83% 29.41 in 4.0 mi WSW 12.7 mph 19.6 mph N/A Snow Light Snow
8:55 PM 26.8 °F 17.1 °F 23.2 °F 86% 29.40 in 1.5 mi WSW 10.4 mph 18.4 mph N/A Snow Light Snow
9:15 PM 27.1 °F 18.2 °F 24.1 °F 88% 29.39 in 1.2 mi WSW 9.2 mph - N/A Snow Light Snow
9:35 PM 27.5 °F 19.3 °F 25.0 °F 90% 29.39 in 2.0 mi West 8.1 mph - N/A Snow Light Snow
9:55 PM 28.4 °F 20.4 °F 25.5 °F 89% 29.38 in 4.0 mi WSW 8.1 mph - N/A Snow Light Snow
10:15 PM 28.4 °F 19.7 °F 25.7 °F 90% 29.37 in 7.0 mi WSW 9.2 mph - N/A Snow Light Snow
10:35 PM 28.6 °F 20.7 °F 26.2 °F 91% 29.37 in 3.0 mi West 8.1 mph - N/A Snow Light Snow
10:55 PM 29.1 °F 25.4 °F 26.6 °F 90% 29.37 in 10.0 mi WNW 3.5 mph - N/A   Overcast
11:15 PM 28.9 °F 22.8 °F 26.6 °F 91% 29.37 in 7.0 mi West 5.8 mph - N/A Snow Light Snow
11:35 PM 29.3 °F 23.2 °F 27.3 °F 92% 29.37 in 10.0 mi WNW 5.8 mph - N/A   Overcast
11:55 PM 30.0 °F 22.4 °F 27.3 °F 90% 29.37 in 10.0 mi NW 8.1 mph - N/A Snow Light Snow